Wind_Speed
34 33 34 34 34 35 35 35 35 34 33 31 29 30 30 28 28 27 27 25 24 24 23 23 23 23 23 23 24 24 24 23 23 23 24 24 24 24 24 23 24 23 23 22
35 35 35 35 35 35 35 35 36 35 34 31 29 29 29 28 28 28 27 26 24 24 24 24 24 25 25 25 25 25 26 25 24 25 25 25 26 26 26 25 24 24 23 23
37 36 37 36 35 35 35 34 35 35 33 32 31 30 28 27 28 27 27 26 25 26 26 26 26 25 26 26 25 26 27 26 26 26 27 26 26 27 27 26 24 25 25 25
37 37 38 36 35 35 35 34 34 35 34 32 31 30 30 29 29 28 27 27 26 25 26 26 26 26 26 26 27 27 27 28 28 27 27 27 27 27 28 28 27 27 27 27
38 38 38 36 35 35 35 35 34 34 33 33 32 31 30 30 29 29 29 28 26 26 26 26 26 26 27 27 27 29 29 29 28 28 28 28 28 29 29 29 28 29 29 29
39 39 39 36 35 35 35 35 33 34 33 33 32 31 29 29 29 29 29 28 27 28 28 28 28 28 28 28 28 28 29 30 30 30 30 29 30 30 30 30 30 31 31 31
38 39 39 37 36 36 36 34 32 32 32 32 33 31 30 30 30 30 30 29 30 30 30 30 30 29 29 29 30 30 31 30 29 29 29 30 31 31 31 32 32 32 31 31
38 38 38 36 36 36 34 33 33 32 32 32 31 31 31 32 32 31 30 30 31 31 31 31 30 30 30 29 30 30 30 30 30 30 29 30 31 31 32 32 33 33 32 32
38 38 37 36 36 34 34 33 32 32 31 31 31 31 31 31 30 30 30 30 30 31 30 30 31 31 30 30 30 30 30 30 31 31 32 32 32 32 33 34 34 34 33 33
36 37 37 36 36 34 33 33 32 31 30 30 31 30 30 30 30 30 28 29 29 29 30 31 31 30 30 30 31 31 30 31 32 32 32 32 32 33 34 34 35 34 34 34
34 35 35 35 35 34 33 32 31 30 29 30 30 29 29 30 30 29 28 28 28 29 30 30 30 31 31 31 31 31 31 31 32 32 32 32 32 32 33 33 34 34 35 35
31 30 30 31 32 32 32 31 31 30 29 29 29 28 28 29 28 28 27 27 28 29 30 30 30 30 30 30 30 31 31 31 32 31 30 31 31 31 32 32 33 33 33 34
28 27 27 27 27 28 29 29 29 29 28 28 27 26 26 28 29 29 29 28 29 30 29 29 29 29 30 30 30 31 31 30 30 30 29 30 30 31 31 31 31 32 33 33
26 26 25 25 25 25 26 27 27 27 26 26 25 26 27 27 28 28 27 27 28 29 29 28 28 28 29 29 29 29 29 29 29 29 29 29 30 31 31 31 31 31 31 31
25 24 24 23 24 25 25 25 25 26 26 26 26 25 25 25 25 25 26 26 27 28 27 27 28 28 28 28 28 28 28 28 28 29 29 30 30 30 30 30 30 30 31 30
23 23 23 23 23 23 23 23 23 24 24 23 23 23 23 24 24 24 24 24 25 26 27 27 27 26 26 27 28 27 27 28 28 29 28 28 28 28 28 29 29 29 29 28
20 20 21 21 20 20 21 21 21 22 22 21 22 22 22 22 23 22 23 24 25 26 26 26 26 26 26 27 27 27 27 27 27 27 28 27 27 27 28 28 29 28 29 29
18 17 17 17 17 18 19 20 21 21 20 20 21 22 22 22 22 22 23 24 25 25 24 25 25 26 26 26 26 26 26 26 26 26 27 26 26 27 28 29 30 30 30 30
16 16 17 17 17 19 19 20 21 20 20 21 21 22 22 21 21 21 22 23 22 23 23 23 24 24 23 23 24 25 25 25 25 25 25 26 26 27 27 28 29 30 29 29
16 16 17 18 18 19 19 20 20 21 21 21 21 21 21 21 21 21 21 21 21 22 23 23 23 23 23 24 24 24 24 24 24 24 25 26 27 27 27 28 28 28 27 28
15 16 16 16 17 17 18 19 19 20 20 20 20 21 21 20 20 20 20 21 21 21 22 22 22 22 23 23 23 23 23 24 24 24 25 26 26 26 26 26 26 26 27 27
14 14 14 15 15 16 17 17 17 18 19 20 20 20 20 20 20 20 21 21 21 21 22 21 22 22 22 22 22 22 22 23 24 24 24 24 25 25 25 25 25 26 27 27
14 14 14 15 16 16 17 17 17 17 17 17 18 18 18 19 19 20 21 21 21 21 21 21 21 21 21 21 21 21 22 22 23 23 23 24 24 24 25 26 26 26 27 28
13 13 13 13 13 14 15 15 15 16 16 16 16 17 18 19 20 20 19 19 19 19 19 20 20 21 21 21 21 21 22 22 22 23 23 24 24 25 25 26 26 27 28 28
12 12 12 13 12 13 14 14 14 15 14 15 15 16 16 17 17 17 16 17 18 18 19 19 20 21 21 22 21 22 22 22 23 23 24 25 25 26 26 27 27 28 28 29
12 12 11 12 12 12 12 12 12 12 13 13 14 14 14 14 15 15 16 16 17 17 18 19 20 20 21 21 21 22 23 23 24 24 25 25 26 27 27 28 28 29 29 29
11 10 10 10 11 11 11 10 10 11 11 11 12 12 13 13 14 14 15 16 16 17 18 19 20 20 21 21 21 22 22 23 23 23 24 25 26 27 28 28 29 29 29 29
Wind_Direction
246 247 248 249 250 250 251 254 257 260 263 265 266 265 267 268 269 272 273 274 272 270 269 269 271 274 274 273 273 272 273 273 272 272 274 275 275 277 277 280 282 280 280 281
246 246 248 250 251 252 253 254 257 260 262 264 264 265 266 267 268 272 275 276 274 269 266 267 269 271 271 271 271 270 272 273 274 273 273 275 275 276 278 280 281 278 280 280
247 247 249 250 251 254 254 255 256 258 261 263 264 265 267 268 269 271 273 275 271 268 266 268 269 270 271 271 269 268 270 273 274 274 274 273 275 276 278 278 280 280 280 280
248 249 251 251 251 253 254 255 256 257 260 262 263 265 266 266 267 268 270 271 270 268 269 270 270 271 273 272 268 268 270 273 274 273 272 273 273 276 277 279 280 280 282 282
248 250 252 251 253 254 255 254 255 256 258 260 262 264 265 266 266 267 270 271 270 271 270 270 271 271 272 272 270 271 271 274 274 273 273 274 275 276 277 278 280 281 282 280
249 251 252 252 253 255 254 254 255 256 256 257 260 262 265 266 266 267 268 269 269 269 270 272 272 271 271 272 271 271 273 273 274 274 273 274 274 275 276 277 279 280 281 279
248 251 252 253 254 255 255 257 256 257 257 257 259 261 263 264 265 266 267 268 268 268 270 272 272 273 274 275 274 274 275 275 274 274 274 275 275 275 276 277 278 279 279 279
249 251 252 252 254 255 256 257 257 259 259 259 260 260 261 262 264 265 265 265 266 267 269 271 271 272 273 274 276 276 276 275 275 274 274 275 275 275 276 277 278 278 279 279
249 251 252 254 254 255 256 257 258 259 260 259 260 261 262 262 262 263 264 265 267 269 270 272 272 272 271 273 275 276 278 279 279 279 279 278 276 277 278 279 279 279 278 277
249 251 252 253 252 252 254 256 257 258 259 260 261 261 261 262 263 264 266 269 271 272 272 273 273 273 274 274 275 277 279 280 281 282 281 282 280 277 277 278 279 278 277 277
252 253 253 252 251 250 251 254 255 255 257 260 260 258 259 261 264 267 268 269 269 271 273 274 275 276 277 276 276 279 280 280 281 282 282 281 281 281 280 280 281 280 279 277
251 252 253 251 249 250 251 253 253 256 257 258 258 257 258 262 266 269 270 269 270 272 274 274 275 278 280 279 279 280 280 280 281 281 280 281 281 282 282 282 283 283 282 280
249 249 249 249 248 249 250 252 254 255 256 257 257 258 260 263 264 265 266 266 270 272 274 276 277 278 279 280 279 279 280 280 280 279 281 282 283 283 283 283 283 283 284 283
246 247 247 246 246 248 250 251 253 255 256 257 258 259 260 262 263 264 264 266 268 271 273 276 278 279 280 280 281 281 282 283 283 283 282 282 283 284 285 285 284 285 285 285
244 246 245 244 244 246 248 252 255 256 255 254 255 257 259 263 265 266 268 269 271 274 276 278 279 280 281 281 282 282 283 284 285 286 284 284 284 285 285 284 285 285 285 285
242 243 244 242 242 243 247 251 252 253 253 253 254 256 260 264 265 267 270 273 274 275 277 278 279 280 282 282 283 285 284 285 286 287 288 286 286 286 286 285 285 286 285 285
237 239 241 241 240 243 246 248 249 250 252 256 257 257 259 263 265 268 271 272 273 274 276 278 279 279 282 284 284 285 286 285 285 287 288 289 289 287 286 286 286 285 285 285
235 237 239 241 244 247 248 246 248 251 254 258 261 261 262 265 267 269 270 271 272 273 274 277 280 280 281 283 284 284 285 286 284 285 287 288 290 289 288 288 288 289 288 288
232 236 237 241 245 246 246 245 247 251 256 258 261 261 261 265 268 269 270 271 272 273 275 278 280 281 282 285 286 286 287 288 289 289 288 289 290 292 292 292 293 292 290 290
236 239 243 246 247 246 247 247 248 252 256 259 260 261 262 264 267 270 272 272 274 276 278 280 281 282 283 286 288 288 288 289 289 289 289 290 292 293 294 296 295 293 293 291
240 242 248 250 252 251 251 251 252 256 259 260 263 264 264 266 269 272 275 277 277 278 279 280 281 283 284 286 287 287 287 287 287 289 290 292 293 294 295 297 299 298 297 296
238 243 247 251 254 254 257 258 258 261 263 263 264 266 266 267 270 273 275 277 278 278 279 280 281 283 284 285 287 288 287 287 288 290 292 293 295 296 296 296 298 298 298 298
242 245 250 257 259 257 259 260 261 262 263 265 265 266 267 268 271 273 274 276 279 280 280 281 282 282 284 285 287 288 289 290 291 293 295 296 296 296 296 296 297 298 299 299
244 250 255 261 261 258 259 262 262 262 263 266 269 270 269 269 271 273 275 276 277 278 280 281 282 284 286 288 289 290 291 292 293 294 295 295 295 297 298 298 298 298 299 300
250 252 258 261 262 262 264 264 264 264 265 267 271 272 272 272 272 272 275 278 280 280 280 282 284 287 288 290 290 290 291 292 293 293 294 295 297 298 299 300 300 300 299 299
256 259 259 262 263 265 266 264 264 264 265 270 274 276 277 277 277 276 278 281 283 283 283 284 286 288 290 290 289 290 292 293 292 292 293 295 297 298 299 300 300 301 301 301
260 258 258 259 262 265 267 267 268 269 270 272 274 276 277 278 279 280 280 282 284 286 287 287 287 289 291 291 292 294 295 295 295 296 297 297 298 299 300 301 302 302 302 301
Height
5815 5818 5820 5822 5825 5827 5828 5830 5832 5834 5836 5839 5840 5841 5843 5844 5845 5846 5847 5847 5848 5848 5848 5848 5848 5847 5846 5845 5845 5845 5844 5844 5844 5843 5844 5844 5843 5843 5842 5841 5840 5839 5839 5838
5806 5809 5811 5813 5816 5818 5821 5823 5824 5826 5829 5831 5832 5834 5835 5837 5838 5838 5839 5840 5840 5841 5841 5841 5841 5840 5839 5839 5838 5838 5838 5838 5837 5837 5837 5837 5836 5836 5835 5834 5833 5832 5832 5831
5798 5800 5802 5805 5809 5811 5813 5815 5817 5819 5822 5823 5825 5827 5828 5829 5830 5831 5831 5832 5833 5834 5834 5834 5833 5833 5832 5832 5830 5831 5831 5830 5830 5830 5830 5829 5828 5828 5827 5827 5826 5825 5825 5824
5788 5791 5793 5800 5801 5803 5805 5807 5809 5811 5814 5815 5817 5819 5820 5822 5823 5823 5824 5824 5825 5826 5826 5826 5826 5825 5825 5824 5824 5824 5823 5823 5822 5822 5822 5821 5820 5820 5820 5819 5819 5818 5817 5816
5779 5781 5784 5790 5792 5794 5796 5798 5801 5803 5805 5807 5809 5810 5812 5814 5815 5815 5816 5817 5817 5818 5818 5818 5818 5818 5818 5817 5816 5816 5816 5815 5815 5814 5813 5813 5812 5812 5812 5812 5811 5810 5809 5808
5770 5772 5775 5781 5784 5784 5787 5789 5793 5795 5797 5799 5801 5803 5805 5806 5807 5807 5808 5808 5809 5810 5810 5810 5810 5810 5809 5809 5808 5808 5807 5807 5806 5805 5805 5804 5804 5803 5803 5803 5802 5801 5800 5798
5760 5762 5765 5771 5773 5775 5779 5782 5784 5786 5788 5790 5792 5795 5797 5797 5798 5798 5799 5800 5801 5801 5801 5802 5802 5801 5801 5800 5800 5800 5799 5798 5797 5797 5796 5796 5796 5795 5794 5793 5792 5791 5790 5788
5751 5753 5759 5761 5763 5766 5769 5772 5774 5777 5779 5782 5784 5785 5787 5788 5789 5789 5789 5790 5791 5792 5792 5793 5792 5792 5792 5792 5791 5790 5790 5789 5789 5788 5787 5786 5786 5786 5785 5784 5783 5781 5780 5779
5743 5747 5749 5752 5754 5757 5760 5762 5765 5767 5770 5772 5774 5776 5778 5779 5779 5780 5781 5781 5782 5782 5783 5783 5782 5782 5782 5782 5782 5781 5781 5781 5780 5779 5777 5776 5776 5776 5775 5774 5773 5771 5770 5769
5733 5736 5739 5742 5744 5747 5750 5753 5756 5759 5761 5763 5765 5767 5768 5769 5770 5771 5771 5772 5772 5772 5773 5773 5773 5773 5773 5773 5772 5772 5772 5771 5771 5770 5769 5767 5766 5765 5764 5764 5762 5761 5760 5759
5724 5727 5729 5732 5735 5738 5741 5744 5747 5750 5752 5754 5756 5758 5759 5760 5761 5761 5762 5762 5763 5763 5764 5764 5764 5764 5763 5763 5763 5762 5762 5761 5761 5760 5759 5758 5757 5755 5754 5754 5752 5751 5749 5748
5716 5719 5721 5724 5726 5730 5733 5736 5739 5741 5744 5746 5747 5749 5751 5752 5753 5753 5754 5754 5754 5755 5754 5754 5754 5754 5754 5754 5753 5753 5753 5752 5751 5750 5749 5748 5747 5746 5744 5743 5742 5740 5738 5737
5709 5711 5713 5716 5719 5722 5725 5728 5731 5733 5736 5738 5740 5741 5743 5744 5745 5745 5746 5746 5746 5746 5746 5745 5745 5745 5745 5745 5745 5744 5744 5743 5742 5741 5740 5739 5738 5736 5735 5734 5732 5730 5729 5727
5702 5704 5707 5710 5712 5715 5718 5720 5723 5726 5729 5731 5732 5734 5735 5735 5736 5736 5737 5737 5737 5737 5737 5737 5737 5736 5736 5736 5736 5735 5735 5734 5733 5732 5731 5730 5729 5728 5726 5725 5723 5721 5720 5718
5696 5698 5701 5703 5706 5709 5712 5714 5717 5719 5721 5723 5724 5726 5726 5727 5728 5728 5729 5729 5729 5729 5729 5729 5729 5728 5728 5727 5727 5726 5726 5725 5724 5723 5722 5721 5720 5719 5717 5716 5714 5712 5711 5709
5691 5693 5695 5698 5700 5703 5706 5708 5710 5712 5714 5715 5716 5718 5719 5720 5720 5720 5720 5721 5721 5721 5721 5721 5721 5720 5720 5719 5719 5718 5717 5716 5716 5715 5713 5712 5711 5709 5708 5706 5705 5703 5701 5700
5686 5688 5690 5693 5695 5697 5700 5702 5704 5705 5707 5708 5709 5710 5711 5712 5713 5713 5713 5714 5714 5714 5714 5714 5713 5712 5712 5711 5711 5710 5709 5708 5707 5706 5705 5703 5702 5700 5699 5697 5695 5694 5692 5691
5681 5683 5685 5688 5690 5692 5694 5696 5698 5699 5701 5702 5703 5704 5705 5705 5706 5706 5706 5706 5706 5706 5706 5706 5705 5705 5704 5704 5703 5702 5701 5700 5699 5698 5696 5695 5693 5691 5690 5688 5686 5684 5683 5681
5677 5679 5682 5684 5686 5687 5689 5691 5692 5693 5695 5696 5697 5697 5698 5698 5699 5699 5699 5699 5699 5699 5699 5698 5698 5698 5697 5696 5696 5695 5694 5693 5691 5690 5688 5687 5685 5683 5681 5679 5677 5674 5672 5671
5674 5676 5678 5679 5681 5682 5684 5685 5686 5688 5689 5690 5690 5691 5692 5692 5692 5692 5692 5692 5692 5692 5692 5691 5691 5691 5690 5689 5688 5687 5686 5685 5684 5682 5681 5679 5677 5676 5673 5671 5668 5666 5664 5662
5670 5672 5674 5675 5676 5677 5678 5679 5680 5681 5682 5683 5684 5685 5685 5686 5686 5686 5686 5686 5686 5685 5685 5684 5684 5683 5683 5682 5681 5680 5679 5678 5677 5675 5674 5672 5670 5668 5666 5663 5660 5658 5656 5654
5667 5668 5669 5671 5672 5673 5673 5674 5675 5675 5676 5677 5677 5678 5678 5679 5679 5679 5679 5679 5679 5679 5678 5678 5677 5677 5676 5675 5674 5673 5672 5671 5669 5668 5666 5664 5662 5660 5658 5656 5654 5651 5649 5647
5664 5665 5666 5666 5667 5667 5668 5669 5669 5670 5670 5671 5671 5672 5672 5673 5673 5673 5673 5673 5672 5672 5671 5671 5671 5670 5669 5668 5667 5666 5665 5664 5662 5661 5659 5657 5655 5653 5651 5649 5647 5645 5642 5640
5661 5661 5662 5662 5662 5663 5663 5664 5664 5665 5665 5666 5666 5666 5666 5667 5667 5666 5666 5666 5665 5665 5665 5665 5664 5664 5663 5662 5661 5660 5658 5657 5655 5654 5652 5650 5649 5647 5644 5642 5639 5637 5634 5632
5657 5658 5658 5658 5659 5659 5659 5660 5660 5660 5660 5661 5661 5661 5661 5661 5661 5661 5660 5660 5660 5659 5659 5659 5658 5657 5657 5656 5655 5653 5652 5650 5649 5647 5645 5644 5642 5639 5637 5634 5632 5629 5626 5623
5654 5654 5654 5654 5655 5655 5655 5656 5656 5656 5656 5656 5656 5656 5656 5656 5656 5656 5656 5655 5655 5654 5654 5653 5652 5652 5651 5650 5648 5647 5645 5644 5642 5640 5638 5636 5634 5631 5629 5626 5623 5621 5618 5614
5650 5650 5651 5651 5651 5651 5652 5652 5652 5653 5653 5653 5653 5653 5652 5652 5652 5652 5651 5651 5650 5650 5649 5648 5647 5646 5645 5644 5642 5641 5639 5637 5635 5633 5631 5628 5626 5623 5621 5618 5615 5612 5608 5605